Flag for U.S.A. Weather past 2 weeks in Santa Cruz, California, U.S.A.

Now
56 °F

Overcast.


Feels Like: 55 °F
Forecast: 50 / 60 °F
Wind: 5 mph from Southwest

Location: Watsonville Municipal Airport

Current Time: Apr 20, 2015 at 10:41:28 PM

Latest Report: Apr 20, 2015 at 9:53 PM


Visibility: 10 mi

Pressure: 29.90 "Hg

Humidity: 81%

Dew point: 50 °F

Location of Santa CruzLocation

Historic Weather in Santa Cruz — Graph

°F

Santa Cruz temperature yesterday

Maximum temperature yesterday: 63 °F (at 12:53 PM)
Minimum temperature yesterday: 52 °F (at 4:53 AM)
Average temperature yesterday: 56 °F

Past Weeks' High & Low Weather Summary

 TemperatureHumidityPressure
High81 °F (Apr 16, 1:53 PM)93% (Apr 13, 7:53 AM)30.32 "Hg (Apr 13, 7:53 AM)
Low41 °F (Apr 6, 4:53 AM)14% (Apr 14, 1:53 PM)29.81 "Hg (Apr 7, 5:53 AM)
Average57 °F68%30.04 "Hg
* Reported Apr 5 8:53 PM — Apr 20 8:53 PM, Santa Cruz, Weather by CustomWeather, © 2015

Note: Actual official high and low records may vary slightly from our data, if they occured in-between our weather recording intervals... More about our weather records

Advertising

Santa Cruz weather history for previous 24 hours

 ConditionsComfort  
Time TempWeatherWind HumidityBarometerVisibility
8:53 PM
Mon, Apr 20
56 °FOvercast.6 mph81%29.89 "Hg10 mi
7:53 PM56 °FOvercast.5 mph81%29.88 "Hg10 mi
6:53 PM57 °FOvercast.7 mph78%29.87 "Hg10 mi
5:53 PM58 °FOvercast.8 mph75%29.88 "Hg10 mi
4:53 PM59 °FOvercast.9 mph72%29.89 "Hg10 mi
3:53 PM60 °FOvercast.13 mph69%29.89 "Hg10 mi
2:53 PM60 °FOvercast.12 mph72%29.90 "Hg10 mi
1:53 PM60 °FOvercast.9 mph72%29.90 "Hg10 mi
12:53 PM59 °FOvercast.7 mph75%29.92 "Hg10 mi
11:53 AM59 °FOvercast.6 mph75%29.93 "Hg10 mi
10:53 AM56 °FLow clouds.6 mph84%29.93 "Hg10 mi
9:53 AM55 °FLow clouds.6 mph87%29.92 "Hg10 mi
8:53 AM54 °FLow clouds.5 mph90%29.92 "Hg10 mi
7:53 AM54 °FLow clouds.5 mph90%29.92 "Hg10 mi
6:53 AM54 °FLow clouds.3 mph90%29.90 "Hg10 mi
5:53 AM54 °FLow clouds.3 mph93%29.89 "Hg7 mi
4:53 AM55 °FLow clouds.No wind90%29.89 "Hg8 mi
3:53 AM55 °FLow clouds.3 mph87%29.90 "Hg10 mi
2:53 AM55 °FLow clouds.No wind90%29.90 "Hg8 mi
1:53 AM55 °FLow clouds.No wind87%29.91 "Hg10 mi
12:53 AM56 °FLow clouds.No wind84%29.92 "Hg10 mi
11:53 PM
Sun, Apr 19
55 °FLow clouds.3 mph87%29.93 "Hg10 mi
10:53 PM55 °FLow clouds.5 mph87%29.93 "Hg10 mi
Weather by CustomWeather, © 2015

See weather overviewHow to use our weather pages